[[{"header":{"parameterUnit":"m.s-1","parameterCategory":1,"la1":30.2991,"la2":30.254,"lo1":-89.0895,"lo2":-89.0444,"dy":0.0017,"dx":0.0017,"nx":28,"ny":28,"refTime":"2023-08-10T09:00:00:Z","depth":0,"parameterNumber":2,"parameterNumberName":"U-component_of_WINDS"},"data":[0,0,0,0,0,0,0,0,0,0,0,0,0,0,0,0,0,0,0,0,0,0,0,0,0,0,0,0,0,0,0,0,0,0,0,0,0,0,0,0,0,0,0,0,0,0,0,0,0,0,0,0,0,0,0,0,0,0,4.372,4.3722,0,4.3836,4.3838,4.3839,4.3774,4.3771,4.3768,4.3765,4.3884,4.389,4.3896,0,0,0,0,0,0,0,0,0,0,0,0,0,4.344,4.3446,4.372,4.3722,4.3723,4.3836,4.3838,4.3839,4.3775,4.3771,4.3767,4.3763,4.3882,4.3889,4.3896,0,0,0,0,0,0,0,0,0,0,0,0,0,4.356,4.3448,4.372,4.3705,4.3704,4.3836,4.3838,4.384,4.3776,4.3771,4.3766,4.3761,4.3879,4.3888,4.3897,4.4051,0,0,4.3926,4.393,0,0,0,0,0,0,0,0,4.3553,4.357,4.3705,4.3706,4.3706,4.3786,4.3782,4.391,4.3777,4.3749,4.3765,4.3759,4.3855,4.3866,4.3898,4.4056,4.4061,4.3926,4.3932,4.3936,4.3938,0,0,0,0,0,0,0,4.3545,4.3565,4.3766,4.3707,4.3708,4.3691,4.3703,4.3806,4.3827,4.3751,4.3746,4.3761,4.3854,4.389,4.3901,4.4063,4.3926,4.3934,4.394,4.3944,4.4348,4.4353,0,0,0,0,0,0,4.3538,4.3558,4.3762,4.377,4.3616,4.37,4.3713,4.3765,4.3826,4.3831,4.3765,4.3757,4.3876,4.389,4.3905,4.4084,4.3936,4.3944,4.395,4.4343,4.4349,4.4354,0,0,0,0,0,0,4.3532,4.3557,4.3758,4.3663,4.3687,4.371,4.3769,4.377,4.3805,4.3837,4.384,4.3797,4.3873,4.3892,4.4014,4.4088,4.3949,4.3957,4.4336,4.4344,4.4352,4.4448,0,0,0,0,0,0,4.3524,4.3555,4.3614,4.3665,4.3692,4.3866,4.3774,4.3776,4.3821,4.3813,4.3868,4.3873,4.3871,4.4,4.4023,4.4098,4.3964,4.433,4.434,4.4349,4.4438,4.4458,4.4475,0,0,0,0,0,4.3514,4.3638,4.3618,4.3642,4.3767,4.387,4.3886,4.3881,4.3828,4.3886,4.3906,4.3871,4.4077,4.4013,4.4038,4.4117,4.4325,4.4337,4.4348,4.443,4.4454,4.4474,0,0,0,0,0,0,4.3596,4.3644,4.3622,4.3766,4.3814,4.3859,4.3934,4.3908,4.3973,4.3962,4.3954,4.3967,4.4093,4.4118,4.4046,4.4266,4.4192,4.4209,4.4245,4.4269,4.4287,4.4277,4.3972,0,0,0,0,0,4.363,4.3711,4.3749,4.3871,4.3897,4.3911,4.3956,4.3948,4.3998,4.4018,4.4047,4.4097,4.4172,4.4222,4.4294,4.4442,4.4451,4.4508,4.4526,4.4541,4.4556,4.4632,4.4656,4.4393,4.4393,4.4393,0,0,4.3703,4.3739,4.379,4.3888,4.3925,4.4007,4.3929,4.402,4.408,4.4032,4.4148,4.4171,4.4226,4.4361,4.4421,4.4385,4.4631,4.4556,4.4568,4.4574,4.4646,4.4671,4.4693,4.4401,4.4399,4.4398,0,0,4.3875,4.3913,4.4017,4.4055,4.4111,4.4119,4.4144,4.4193,4.4206,4.4322,4.4287,4.4358,4.449,4.4529,4.4566,4.4751,4.4719,4.4775,4.487,4.4944,4.4964,4.4983,4.5045,4.5068,4.4789,4.4789,4.4789,0,4.3958,4.4081,4.4074,4.4166,4.4209,4.4169,4.4273,4.431,4.4387,4.4417,4.4375,4.4536,4.4571,4.4712,4.4757,4.479,4.4815,4.4767,4.4962,4.498,4.4997,4.5057,4.508,4.4795,4.4795,4.4794,4.4793,0,4.4177,4.4263,4.434,4.4414,4.4466,4.4564,4.457,4.4623,4.461,4.4623,4.474,4.4779,4.4856,4.489,4.4879,4.5029,4.5004,4.4963,4.4887,4.5029,4.5084,4.5107,4.4804,4.4802,4.48,4.4799,0,0,4.4405,4.4472,4.45,4.4531,4.4589,4.4655,4.475,4.4824,4.4868,4.4923,4.5,4.5111,4.5072,4.5114,4.5107,4.5173,4.5312,4.5123,4.5124,4.5154,4.5475,4.5503,4.553,4.5292,4.5297,4.53,4.5469,0,4.4578,4.4744,4.4739,4.4894,4.497,4.4932,4.5015,4.5058,4.5072,4.5138,4.5154,4.5231,4.5176,4.52,4.5264,4.5282,4.5376,4.527,4.5362,4.5366,4.5346,4.5559,4.559,4.5748,4.5491,4.5495,4.5498,0,4.4803,4.4863,4.5024,4.5068,4.51,4.5174,4.524,4.5305,4.5353,4.5358,4.5404,4.5385,4.548,4.5404,4.5532,4.546,4.5498,4.5512,4.5518,4.5524,4.5438,4.5568,4.5798,4.582,4.5532,4.553,4.5527,0,4.4948,4.5069,4.518,4.5209,4.5263,4.5316,4.5341,4.5384,4.5428,4.5486,4.5513,4.5582,4.5619,4.5672,4.5672,4.5617,4.5801,4.5725,4.5805,4.5805,4.5844,4.5841,4.608,4.5874,4.5873,4.5873,4.5872,0,4.5141,4.524,4.5245,4.5314,4.5423,4.5416,4.5524,4.5544,4.5582,4.5652,4.5624,4.569,4.5688,4.5754,4.5755,4.5859,4.5877,4.5882,4.588,4.5883,4.5882,4.5905,4.5893,4.5879,4.5878,4.5877,4.5875,0,4.532,4.5328,4.5446,4.5487,4.55,4.5578,4.5612,4.5676,4.5687,4.5775,4.5796,4.5813,4.5889,4.5895,4.5985,4.5985,4.6109,4.6098,4.6093,4.609,4.6168,4.6159,4.6428,4.6461,4.6237,4.6239,4.624,0,4.5441,4.5516,4.5564,4.5609,4.5636,4.5709,4.5753,4.5749,4.5796,4.5854,4.591,4.5984,4.6042,4.6167,4.6186,4.6253,4.6241,4.633,4.6251,4.6249,4.6238,4.6232,4.6237,4.6345,4.6347,4.6349,4.6351,0,4.5653,4.5653,4.5717,4.5783,4.5836,4.5887,4.5935,4.5973,4.5974,4.6028,4.6105,4.6151,4.624,4.6313,4.6378,4.6403,4.6376,4.6376,4.6397,4.6399,4.6391,4.6393,4.6131,4.637,4.6368,4.6366,4.6365,4.6365,4.5805,4.5868,4.5911,4.5983,4.6018,4.6063,4.6123,4.6141,4.6205,4.6277,4.6271,4.6356,4.6399,4.6483,4.6513,4.6578,4.6548,4.658,4.6587,4.6594,4.6601,4.6384,4.6591,4.659,4.659,4.6589,4.6589,0,4.6012,4.6037,4.6104,4.617,4.6226,4.6197,4.6248,4.6296,4.6371,4.6413,4.6471,4.6558,4.6627,4.6652,4.6719,4.6766,4.6756,4.6784,4.6779,4.6784,4.6626,4.6599,4.6791,4.6791,4.6791,4.6791,4.6791,4.6791,4.6126,4.6231,4.6235,4.6356,4.638,4.6462,4.6493,4.6533,4.6567,4.6665,4.6722,4.6738,4.6772,4.6841,4.6902,4.6908,4.6932,4.6965,4.6965,4.6816,4.6796,4.6776,4.675,4.6971,4.6971,4.7116,4.7118,4.7119]},{"header":{"parameterUnit":"m.s-1","parameterCategory":1,"la1":30.2991,"la2":30.254,"lo1":-89.0895,"lo2":-89.0444,"dy":0.0017,"dx":0.0017,"nx":28,"ny":28,"refTime":"2023-08-10T09:00:00:Z","depth":0,"parameterNumber":3,"parameterNumberName":"V-component_of_WINDS"},"data":[0,0,0,0,0,0,0,0,0,0,0,0,0,0,0,0,0,0,0,0,0,0,0,0,0,0,0,0,0,0,0,0,0,0,0,0,0,0,0,0,0,0,0,0,0,0,0,0,0,0,0,0,0,0,0,0,0,0,2.0093,2.0094,0,2.0145,2.0145,2.0146,2.0094,2.0092,2.009,2.0088,2.0141,2.0145,2.0148,0,0,0,0,0,0,0,0,0,0,0,0,0,1.995,1.9953,2.0093,2.0094,2.0095,2.0144,2.0145,2.0146,2.0095,2.0092,2.009,2.0087,2.014,2.0144,2.0148,0,0,0,0,0,0,0,0,0,0,0,0,0,2.0008,1.9954,2.0093,2.0075,2.0074,2.0144,2.0145,2.0146,2.0095,2.0092,2.0089,2.0086,2.0139,2.0144,2.0149,2.024,0,0,2.0164,2.0166,0,0,0,0,0,0,0,0,2.0005,2.0013,2.0077,2.0076,2.0075,2.011,2.0114,2.0178,2.0096,2.0087,2.0088,2.0085,2.0133,2.0139,2.0155,2.0242,2.0245,2.0164,2.0167,2.0169,2.0171,0,0,0,0,0,0,0,2.0001,2.0011,2.0113,2.0078,2.0077,2.0064,2.0069,2.0126,2.0127,2.0088,2.0084,2.0091,2.0132,2.015,2.0156,2.0245,2.0164,2.0169,2.0172,2.0174,2.0408,2.0411,0,0,0,0,0,0,1.9999,2.0008,2.0112,2.0115,2.0032,2.0069,2.0074,2.0102,2.0126,2.0127,2.0093,2.0088,2.0143,2.015,2.0157,2.0265,2.0169,2.0174,2.0177,2.0405,2.0409,2.0412,0,0,0,0,0,0,1.9996,2.0008,2.011,2.006,2.0072,2.0075,2.0106,2.0104,2.0122,2.013,2.013,2.0111,2.0141,2.015,2.0219,2.0266,2.0176,2.0181,2.0401,2.0406,2.0411,2.048,0,0,0,0,0,0,1.9992,2.0008,2.0043,2.0062,2.0075,2.0171,2.0109,2.0108,2.0131,2.0125,2.0147,2.0148,2.014,2.0212,2.0224,2.0271,2.0185,2.0397,2.0403,2.0409,2.0474,2.0487,2.0498,0,0,0,0,0,1.9987,2.0061,2.0045,2.0058,2.0119,2.0174,2.0182,2.017,2.0135,2.017,2.0174,2.0147,2.0259,2.022,2.0233,2.0282,2.0394,2.0401,2.0409,2.0469,2.0485,2.0498,0,0,0,0,0,0,2.0049,2.0063,2.0046,2.0128,2.015,2.0165,2.0209,2.0188,2.0221,2.0214,2.0198,2.0204,2.0276,2.0286,2.0242,2.037,2.032,2.0331,2.0361,2.0377,2.0389,2.0385,2.0189,0,0,0,0,0,2.0072,2.0115,2.0126,2.0197,2.0209,2.0208,2.0231,2.022,2.0243,2.0252,2.0262,2.0284,2.0324,2.0351,2.0388,2.0475,2.0478,2.0515,2.0527,2.0537,2.0546,2.0591,2.0607,2.0436,2.0436,2.0436,0,0,2.012,2.0134,2.0162,2.021,2.0226,2.0271,2.0216,2.0266,2.0299,2.026,2.0325,2.0333,2.0357,2.0434,2.0469,2.0445,2.0593,2.0546,2.0554,2.0558,2.06,2.0616,2.063,2.0441,2.044,2.044,0,0,2.0231,2.0246,2.0307,2.0323,2.0348,2.0346,2.036,2.0378,2.0382,2.0447,2.0417,2.0456,2.0525,2.0543,2.0562,2.0677,2.0653,2.0689,2.0753,2.0797,2.081,2.0822,2.0863,2.0877,2.0698,2.0699,2.0699,0,2.0289,2.0356,2.0341,2.0393,2.0414,2.0379,2.044,2.0457,2.0492,2.0507,2.0479,2.0564,2.0578,2.0659,2.0686,2.0703,2.0718,2.0687,2.081,2.0821,2.0832,2.087,2.0886,2.0703,2.0702,2.0702,2.0702,0,2.0424,2.0471,2.0517,2.0551,2.0577,2.0634,2.0627,2.0655,2.0641,2.0642,2.0707,2.0723,2.0761,2.078,2.0767,2.0858,2.0842,2.0812,2.0762,2.0853,2.0888,2.0903,2.0709,2.0707,2.0706,2.0705,0,0,2.0577,2.0601,2.0618,2.0632,2.0655,2.0691,2.0745,2.0782,2.0806,2.0831,2.0876,2.0934,2.0906,2.0927,2.0915,2.0954,2.1043,2.0919,2.0919,2.0941,2.1142,2.1165,2.1182,2.1027,2.1029,2.1031,2.114,0,2.0688,2.0782,2.0769,2.0859,2.0901,2.0867,2.0913,2.0932,2.0934,2.0969,2.0971,2.1012,2.0972,2.0984,2.1021,2.1024,2.1083,2.1016,2.1067,2.1069,2.1062,2.1201,2.1225,2.1327,2.1154,2.1156,2.1158,0,2.0831,2.086,2.0954,2.0968,2.0986,2.1028,2.106,2.1095,2.1115,2.1113,2.1135,2.1116,2.1169,2.1118,2.119,2.1145,2.1164,2.1169,2.1172,2.1177,2.1119,2.1208,2.1359,2.1374,2.118,2.1178,2.1177,0,2.0932,2.0995,2.1058,2.1072,2.1091,2.1121,2.113,2.1147,2.117,2.1198,2.1212,2.1246,2.1265,2.1291,2.1282,2.1245,2.1356,2.1304,2.1355,2.1355,2.138,2.1379,2.1536,2.1394,2.1393,2.1393,2.1393,0,2.1058,2.1116,2.1104,2.1143,2.1207,2.1191,2.1255,2.126,2.1275,2.1314,2.1287,2.1324,2.1309,2.1345,2.1338,2.1398,2.1407,2.1406,2.1404,2.1409,2.1409,2.1422,2.1414,2.1397,2.1396,2.1395,2.1395,0,2.1182,2.1176,2.1243,2.1255,2.1259,2.1306,2.1316,2.1352,2.135,2.14,2.1411,2.1409,2.1449,2.1442,2.1488,2.1483,2.1557,2.1546,2.1551,2.1548,2.16,2.1595,2.1771,2.1792,2.1636,2.1638,2.1639,0,2.1262,2.1306,2.1322,2.1346,2.1358,2.1397,2.1419,2.1405,2.1429,2.1454,2.1487,2.1525,2.1555,2.1621,2.1624,2.1657,2.1647,2.1706,2.1652,2.1655,2.1647,2.1644,2.1648,2.1717,2.1719,2.172,2.1721,0,2.1405,2.14,2.1433,2.1465,2.1493,2.1517,2.1539,2.156,2.1548,2.1576,2.1617,2.164,2.1685,2.1723,2.1754,2.1763,2.174,2.1738,2.1752,2.1757,2.1758,2.1757,2.158,2.1734,2.1733,2.1732,2.1731,2.1731,2.151,2.1546,2.1563,2.1601,2.1615,2.1636,2.167,2.1672,2.1706,2.1742,2.1731,2.1777,2.1794,2.1833,2.1846,2.1881,2.1859,2.1879,2.1884,2.1889,2.1895,2.1752,2.1887,2.1887,2.1886,2.1886,2.1886,0,2.1651,2.1659,2.1694,2.1725,2.1754,2.1729,2.1751,2.1777,2.1818,2.1836,2.1865,2.1911,2.1947,2.1952,2.1985,2.2013,2.2003,2.2022,2.202,2.2022,2.1913,2.1898,2.2029,2.2029,2.2029,2.2029,2.2029,2.2029,2.1727,2.1788,2.1784,2.1851,2.1859,2.1903,2.1918,2.1937,2.1951,2.2003,2.2033,2.2035,2.2047,2.2081,2.2112,2.2113,2.2126,2.215,2.2146,2.2044,2.203,2.2016,2.2002,2.2153,2.2153,2.2251,2.2252,2.2253]}]]